When you browse on this site, cookies collect data to enhance your experience and personalize the content and advertising you see.
Visit our Privacy Policy to learn more. By continuing to use the site, you agree to this use of cookies and data.
  • Em Portugal
  • Lista de países
  • Para 7 dias
  • Temperatura da água
  • Mapas de satélite
  • Mapa do tempo
  • Widgets de tempo
  • user-avatar
    Iniciar Sessão

    Previsão horária em Gogolow

    Hoje, 19 Dezembro, Quarta-feira

    Tempo Temperatura Precipitação Vento Pressão Humidade
    00:00 -3°C° 0 mm 1 m/s 747 mmHg 94%
    01:00 -3°C° 0 mm 1 m/s 747 mmHg 94%
    02:00 -4°C° 0 mm 1 m/s 747 mmHg 94%
    03:00 -4°C° 0 mm 1 m/s 747 mmHg 93%
    04:00 -4°C° 0 mm 1 m/s 746 mmHg 93%
    05:00 -4°C° 0 mm 1 m/s 746 mmHg 93%
    06:00 -7°C° 0 mm 2 m/s 746 mmHg 92%
    07:00 -7°C° 0 mm 2 m/s 746 mmHg 91%
    08:00 -6°C° 0 mm 2 m/s 746 mmHg 88%
    09:00 -5°C° 0 mm 2 m/s 746 mmHg 86%
    10:00 -5°C° 0 mm 3 m/s 746 mmHg 83%
    11:00 -5°C° 0 mm 3 m/s 746 mmHg 82%
    12:00 -4°C° 0 mm 3 m/s 745 mmHg 81%
    13:00 -2°C° 0 mm 3 m/s 745 mmHg 80%
    14:00 -4°C° 0 mm 3 m/s 745 mmHg 83%
    15:00 -5°C° 0 mm 3 m/s 745 mmHg 86%
    16:00 -6°C° 0 mm 3 m/s 744 mmHg 89%
    17:00 -6°C° 0 mm 3 m/s 744 mmHg 89%
    18:00 -6°C° 0 mm 3 m/s 744 mmHg 89%
    19:00 -7°C° 0 mm 3 m/s 744 mmHg 89%
    20:00 -7°C° 0 mm 3 m/s 744 mmHg 89%
    21:00 -7°C° 0 mm 3 m/s 743 mmHg 88%
    22:00 -7°C° 0 mm 3 m/s 743 mmHg 87%
    23:00 -7°C° 0 mm 3 m/s 743 mmHg 86%

    Amanhã, 20 Dezembro, Quinta-feira

    Tempo Temperatura Precipitação Vento Pressão Humidade
    00:00 -6°C° 0 mm 3 m/s 743 mmHg 85%
    01:00 -6°C° 0 mm 3 m/s 743 mmHg 84%
    02:00 -6°C° 0 mm 3 m/s 743 mmHg 83%
    03:00 -6°C° 0 mm 3 m/s 742 mmHg 82%
    04:00 -6°C° 0 mm 3 m/s 742 mmHg 82%
    05:00 -5°C° 0 mm 4 m/s 742 mmHg 81%
    06:00 -5°C° 0 mm 4 m/s 742 mmHg 81%
    07:00 -5°C° 0 mm 4 m/s 742 mmHg 81%
    08:00 -4°C° 0 mm 4 m/s 742 mmHg 80%
    09:00 -3°C° 0 mm 4 m/s 742 mmHg 80%
    10:00 -3°C° 0 mm 4 m/s 742 mmHg 79%
    11:00 -3°C° 0.1 mm 4 m/s 742 mmHg 80%
    12:00 -3°C° 0.1 mm 4 m/s 742 mmHg 82%
    13:00 -3°C° 0.1 mm 4 m/s 741 mmHg 83%
    14:00 -3°C° 0.2 mm 4 m/s 741 mmHg 85%
    15:00 -2°C° 0.2 mm 3 m/s 741 mmHg 87%
    16:00 -2°C° 0.2 mm 3 m/s 741 mmHg 89%
    17:00 -2°C° 0.2 mm 3 m/s 741 mmHg 90%
    18:00 -2°C° 0.2 mm 3 m/s 741 mmHg 90%
    19:00 -4°C° 0.2 mm 3 m/s 742 mmHg 91%
    20:00 -3°C° 0.2 mm 4 m/s 742 mmHg 91%
    21:00 -3°C° 0.2 mm 4 m/s 742 mmHg 90%
    22:00 -3°C° 0.2 mm 4 m/s 742 mmHg 90%
    23:00 -3°C° 0.1 mm 4 m/s 742 mmHg 90%

    Depois de amanhã, 21 Dezembro, Sexta-feira

    Tempo Temperatura Precipitação Vento Pressão Humidade
    00:00 -3°C° 0.1 mm 4 m/s 742 mmHg 89%
    01:00 -3°C° 0.1 mm 4 m/s 742 mmHg 89%
    02:00 -3°C° 0 mm 4 m/s 742 mmHg 89%
    03:00 -3°C° 0 mm 4 m/s 741 mmHg 89%
    04:00 -3°C° 0 mm 4 m/s 741 mmHg 89%
    05:00 -3°C° 0 mm 4 m/s 741 mmHg 89%
    06:00 -3°C° 0 mm 4 m/s 741 mmHg 89%
    07:00 -3°C° 0 mm 4 m/s 741 mmHg 89%
    08:00 -3°C° 0 mm 4 m/s 741 mmHg 88%
    09:00 -2°C° 0 mm 5 m/s 741 mmHg 87%
    10:00 -2°C° 0 mm 5 m/s 741 mmHg 87%
    11:00 -1°C° 0.2 mm 5 m/s 740 mmHg 87%
    12:00 -1°C° 0.2 mm 5 m/s 740 mmHg 88%
    13:00 -1°C° 0.2 mm 5 m/s 740 mmHg 88%
    14:00 -2°C° 0.1 mm 6 m/s 739 mmHg 88%
    15:00 -2°C° 0.1 mm 6 m/s 738 mmHg 87%
    16:00 -2°C° 0.1 mm 6 m/s 738 mmHg 87%
    17:00 -2°C° 0.2 mm 7 m/s 737 mmHg 86%
    18:00 -2°C° 0.2 mm 7 m/s 737 mmHg 86%
    19:00 -2°C° 0.2 mm 8 m/s 736 mmHg 85%
    20:00 -2°C° 0.4 mm 8 m/s 735 mmHg 85%
    21:00 -2°C° 0.4 mm 8 m/s 735 mmHg 86%
    22:00 -2°C° 0.4 mm 7 m/s 734 mmHg 86%
    23:00 -1°C° 0.4 mm 7 m/s 734 mmHg 87%

    22 Dezembro, Sábado

    Tempo Temperatura Precipitação Vento Pressão Humidade
    00:00 -1°C° 0.4 mm 7 m/s 733 mmHg 87%
    01:00 -1°C° 0.4 mm 6 m/s 733 mmHg 88%
    02:00 -1°C° 0.1 mm 6 m/s 733 mmHg 89%
    03:00 -1°C° 0.1 mm 6 m/s 733 mmHg 89%
    04:00 +1°C° 0.1 mm 6 m/s 733 mmHg 90%
    05:00 +1°C° 0 mm 5 m/s 733 mmHg 90%
    06:00 0°C° 0 mm 5 m/s 733 mmHg 89%
    07:00 0°C° 0 mm 5 m/s 733 mmHg 89%
    08:00 +1°C° 0 mm 5 m/s 733 mmHg 90%
    09:00 +1°C° 0 mm 4 m/s 732 mmHg 90%
    10:00 +1°C° 0 mm 4 m/s 732 mmHg 91%
    11:00 +1°C° 0.2 mm 4 m/s 732 mmHg 92%
    12:00 +1°C° 0.2 mm 4 m/s 731 mmHg 93%
    13:00 +1°C° 0.2 mm 4 m/s 730 mmHg 94%
    14:00 +1°C° 0.1 mm 4 m/s 730 mmHg 93%
    15:00 +1°C° 0.1 mm 4 m/s 730 mmHg 93%
    16:00 +1°C° 0.1 mm 4 m/s 729 mmHg 92%
    17:00 +2°C° 0.2 mm 5 m/s 729 mmHg 91%
    18:00 +3°C° 0.2 mm 7 m/s 730 mmHg 90%
    19:00 +2°C° 0.2 mm 8 m/s 730 mmHg 89%
    20:00 +3°C° 0.1 mm 7 m/s 731 mmHg 89%
    21:00 +3°C° 0.1 mm 6 m/s 731 mmHg 89%
    22:00 +3°C° 0.1 mm 6 m/s 732 mmHg 88%
    23:00 +2°C° 0 mm 6 m/s 732 mmHg 88%

    23 Dezembro, Domingo

    Tempo Temperatura Precipitação Vento Pressão Humidade
    00:00 +2°C° 0 mm 6 m/s 732 mmHg 88%
    01:00 +2°C° 0 mm 5 m/s 732 mmHg 87%
    02:00 +2°C° 0.2 mm 5 m/s 732 mmHg 87%
    03:00 +2°C° 0.2 mm 5 m/s 732 mmHg 86%
    04:00 +2°C° 0.2 mm 5 m/s 733 mmHg 86%
    05:00 +2°C° 0.3 mm 6 m/s 733 mmHg 87%
    06:00 +2°C° 0.3 mm 6 m/s 733 mmHg 88%
    07:00 +2°C° 0.3 mm 6 m/s 734 mmHg 89%
    08:00 +2°C° 0.1 mm 7 m/s 735 mmHg 88%
    09:00 +2°C° 0.1 mm 7 m/s 735 mmHg 86%
    10:00 +2°C° 0.1 mm 7 m/s 736 mmHg 84%
    11:00 +3°C° 0.1 mm 6 m/s 736 mmHg 83%
    12:00 +3°C° 0.1 mm 6 m/s 736 mmHg 82%
    13:00 +3°C° 0.1 mm 6 m/s 736 mmHg 80%
    14:00 +2°C° 0.1 mm 5 m/s 736 mmHg 82%
    15:00 +2°C° 0.1 mm 5 m/s 737 mmHg 84%
    16:00 +3°C° 0.1 mm 4 m/s 737 mmHg 86%
    17:00 +1°C° 0.1 mm 4 m/s 737 mmHg 87%
    18:00 +1°C° 0.1 mm 4 m/s 737 mmHg 87%
    19:00 +1°C° 0.1 mm 4 m/s 737 mmHg 87%
    20:00 +1°C° 0.1 mm 5 m/s 737 mmHg 87%
    21:00 +1°C° 0.1 mm 5 m/s 737 mmHg 87%
    22:00 +1°C° 0.1 mm 5 m/s 737 mmHg 87%
    23:00 +1°C° 0.3 mm 5 m/s 737 mmHg 86%

    24 Dezembro, Segunda-feira

    Tempo Temperatura Precipitação Vento Pressão Humidade
    00:00 +1°C° 0.3 mm 6 m/s 737 mmHg 85%
    01:00 +2°C° 0.3 mm 6 m/s 737 mmHg 84%
    02:00 +1°C° 0.3 mm 6 m/s 737 mmHg 84%
    03:00 +1°C° 0.3 mm 6 m/s 737 mmHg 84%
    04:00 +1°C° 0.3 mm 6 m/s 738 mmHg 84%
    05:00 -1°C° 0.1 mm 6 m/s 738 mmHg 84%
    06:00 -1°C° 0.1 mm 5 m/s 739 mmHg 85%
    07:00 -2°C° 0.1 mm 5 m/s 740 mmHg 85%
    08:00 -2°C° 0 mm 5 m/s 740 mmHg 83%
    09:00 -2°C° 0 mm 5 m/s 741 mmHg 81%
    10:00 -2°C° 0 mm 5 m/s 742 mmHg 79%
    11:00 -2°C° 0 mm 5 m/s 742 mmHg 78%
    12:00 -1°C° 0 mm 4 m/s 742 mmHg 77%
    13:00 -1°C° 0 mm 4 m/s 742 mmHg 76%
    14:00 -1°C° 0 mm 4 m/s 743 mmHg 80%
    15:00 -1°C° 0 mm 3 m/s 743 mmHg 84%
    16:00 -1°C° 0 mm 2 m/s 743 mmHg 88%
    17:00 -1°C° 0 mm 2 m/s 744 mmHg 89%
    18:00 -1°C° 0 mm 2 m/s 744 mmHg 90%
    19:00 -1°C° 0 mm 2 m/s 744 mmHg 92%
    20:00 -1°C° 0 mm 2 m/s 744 mmHg 92%
    21:00 -1°C° 0 mm 2 m/s 744 mmHg 93%
    22:00 -1°C° 0 mm 2 m/s 745 mmHg 93%
    23:00 -1°C° 0 mm 2 m/s 744 mmHg 94%
    Mostrar mais